Flag for Micronesia Weather past 2 weeks in Colonia, Yap, Micronesia

Now
82 °F

Scattered clouds.


Feels Like: 89 °F
Forecast: 80 / 86 °F
Wind: 5 mph from North

Location: Yap Island

Current Time: Sep 2, 2015 at 9:12:39 AM

Latest Report: Sep 2, 2015 at 7:57 AM


Visibility: 12 mi

Pressure: 29.83 "Hg

Humidity: 84%

Dew point: 76 °F

Location of ColoniaLocation

Historic Weather in Colonia — Graph

°F

Colonia temperature yesterday

Maximum temperature yesterday: 86 °F (at 3:52 PM)
Minimum temperature yesterday: 76 °F (at 12:55 AM)
Average temperature yesterday: 82 °F

Past Weeks' High & Low Weather Summary

 TemperatureHumidityPressure
High96 °F (Aug 24, 4:52 AM)96% (Aug 24, 5:50 PM)29.95 "Hg (Aug 24, 5:50 PM)
Low74 °F (Aug 25, 9:56 AM)51% (Aug 24, 4:52 AM)29.71 "Hg (Aug 18, 3:50 PM)
Average82 °F84%29.83 "Hg
* Reported Aug 18 6:52 AM — Sep 2 6:57 AM, Colonia, Weather by CustomWeather, © 2015

Note: Actual official high and low records may vary slightly from our data, if they occured in-between our weather recording intervals... More about our weather records

Advertising

Colonia weather history for previous 24 hours

 ConditionsComfort  
Time TempWeatherWind HumidityBarometerVisibility
6:57 AM
Wed, Sep 2
81 °FMostly cloudy.2 mph85%29.87 "Hg12 mi
5:55 AM81 °FPartly cloudy.3 mph85%29.85 "Hg12 mi
4:59 AM81 °FPartly cloudy.3 mph85%29.85 "Hg12 mi
3:55 AM80 °FPartly cloudy.2 mph89%29.85 "Hg12 mi
2:53 AM80 °FPartly cloudy.3 mph90%29.85 "Hg12 mi
1:54 AM78 °FOvercast.3 mph91%29.83 "Hg12 mi
12:52 AM80 °FSprinkles. Mostly cloudy.6 mph90%29.88 "Hg10 mi
11:52 PM
Tue, Sep 1
81 °FPassing clouds.No wind86%29.88 "Hg12 mi
10:54 PM80 °FPassing clouds.3 mph87%29.88 "Hg12 mi
9:52 PM81 °FPartly cloudy.8 mph85%29.86 "Hg12 mi
8:50 PM82 °FPartly cloudy.5 mph85%29.84 "Hg12 mi
7:50 PM82 °FBroken clouds.5 mph83%29.83 "Hg12 mi
6:51 PM82 °FBroken clouds.7 mph83%29.82 "Hg12 mi
5:50 PM83 °FBroken clouds.5 mph81%29.80 "Hg12 mi
4:53 PM85 °FBroken clouds.8 mph77%29.79 "Hg12 mi
3:52 PM86 °FBroken clouds.9 mph76%29.80 "Hg12 mi
2:50 PM85 °FBroken clouds.9 mph75%29.80 "Hg12 mi
1:50 PM84 °FBroken clouds.12 mph80%29.81 "Hg12 mi
12:53 PM86 °FBroken clouds.9 mph77%29.83 "Hg12 mi
11:51 AM85 °FBroken clouds.6 mph76%29.85 "Hg12 mi
10:54 AM84 °FScattered clouds.6 mph77%29.85 "Hg12 mi
9:51 AM84 °FScattered clouds.5 mph79%29.85 "Hg12 mi
Weather by CustomWeather, © 2015

See weather overviewHow to use our weather pages